Regional Weather Roundup
Issued by NWS Bismarck, ND

Home | Current Version | Previous Version | Text Only | Print | Product List | Glossary On
Versions: 1 2 3 4 5 6 7 8 9 10 11 12 13 14 15 16 17 18 19 20 21 22 23 24 25 26 27 28 29 30 31 32 33 34 35 36 37 38 39 40 41 42 43 44 45 46 47 48 49 50
000
ASUS43 KBIS 280910
RWRBIS

NWR BROADCAST TEXT
NATIONAL WEATHER SERVICE BISMARCK ND
400 AM CDT WED SEP 28 2016

NOTE: "FAIR" INDICATES FEW OR NO CLOUDS BELOW 12,000 FEET WITH NO
SIGNIFICANT WEATHER AND/OR OBSTRUCTIONS TO VISIBILITY.


CITY           SKY/WX    TMP DP  RH WIND       PRES   REMARKS
WILLISTON      CLEAR     49  45  86 N5        30.09R
MINOT          CLEAR     43  37  79 E5        30.11R
MINOT AFB      CLEAR     39  35  86 SE6       30.10R
BISMARCK       CLOUDY    40  36  86 E7        30.13R
DICKINSON      CLEAR     48  42  80 S8        30.08R
GARRISON         N/A     45  41  86 E6        30.11R
HETTINGER ARPT CLEAR     46  42  86 CALM      30.11R
JAMESTOWN      CLOUDY    40  39  97 N3        30.12R
BEACH          FAIR      46  46 100 SW5       30.13R
CARRINGTON     FAIR      39  39 100 CALM      30.15R
HAZEN          FAIR      39  37  93 CALM      30.13R
LINTON         FAIR      37  37 100 CALM      30.15R
MANDAN         FAIR      45  37  76 E5        30.14R
RUGBY          FAIR      39  39 100 CALM      30.14R
STANLEY        FAIR      48  45  87 E3        30.13R
WATFORD CITY   FAIR      46  46 100 CALM      30.09R
$$

CITY           SKY/WX    TMP DP  RH WIND       PRES   REMARKS
GRAND FORKS    CLOUDY    40  38  93 NW6       30.12R
GRAND FORKS AF CLOUDY    40  39  95 NW5       30.13R
DEVILS LAKE    CLOUDY    45  43  93 CALM      30.15R
FARGO          CLOUDY    40  37  89 N7        30.10R
CANDO          FOG       37  37 100 CALM      30.17R VSB 1/2
CAVALIER       FAIR      43  41  93 CALM      30.14R
GRAFTON        FAIR      43  43 100 NW5       30.15R
GWINNER        FAIR      45  43  93 N6        30.11R
LANGDON        FAIR      41  41 100 CALM      30.14R
ROLLA          FAIR      32  32 100 SW3       30.15R
WALHALLA       FAIR      45  45 100 CALM      30.14R
$$

CITY           SKY/WX    TMP DP  RH WIND       PRES   REMARKS
ABERDEEN       CLOUDY    39  36  89 N8        30.11R
MOBRIDGE       CLOUDY    45  37  73 E6        30.10R
BUFFALO          N/A     57  45  64 NW3       30.06R
RAPID CITY     CLEAR     54  41  61 NW10      30.13S
GLASGOW        CLEAR     55  45  68 NW10      30.16R
SIDNEY         CLEAR     59  49  69 N18       30.09R
WOLF POINT     CLEAR     60  47  61 N16G25    30.12R
GLENDIVE       CLEAR     51  45  79 NW7       30.11R
MILES CITY     CLEAR     51  45  79 SW5       30.12R
BAKER          CLEAR     50  46  86 NW3       30.12R
$$

CITY           SKY/WX    TMP DP  RH WIND       PRES   REMARKS
BILLINGS       CLEAR     57  42  57 N8        30.19R
GREAT FALLS    CLEAR     40  36  86 W5        30.31S
REGINA         CLEAR     50  46  87 N15G22    30.14R
ESTEVAN        PTCLDY    45  41  87 E8        30.09R
$$




USA.gov is the U.S. government's official web portal to all federal, state and local government web resources and services.